Change the Weather History Date:

Monday, November 19, 2012

  Actual Average (KACT) Record (KACT)
Temperature  
Mean Temperature 63 °F 56 °F  
Max Temperature 71 °F 67 °F 87 °F (1949)
Min Temperature 55 °F 45 °F 24 °F (1903)
Degree Days  
Heating Degree Days 2 10  
Month to date heating degree days 132  
Since 1 July heating degree days 199  
Cooling Degree Days 0 1  
Month to date cooling degree days 31  
Year to date cooling degree days 2787  
Growing Degree Days 13 (Base 50)    
Moisture  
Dew Point 47 °F    
Average Humidity 57    
Maximum Humidity 72    
Minimum Humidity 36    
Precipitation  
Precipitation 0.00 in 0.08 in 2.87 in (1992)
Month to date precipitation 1.90  
Year to date precipitation 31.02  
Snow  
Snow 0.00 in 0.00 in 0.00 in ()
Month to date snowfall 0.0  
Since 1 July snowfall 0.0  
Since 1 September snowfall 0.0  
Snow Depth -    
Sea Level Pressure  
Sea Level Pressure 30.19 in    
Wind  
Wind Speed 11 mph (SSE)    
Max Wind Speed 14 mph    
Max Gust Speed 21 mph    
Visibility 10 miles    
Events      
T = Trace of Precipitation, MM = Missing Value Source: NWS Daily Summary

Daily Weather History Graph

Daily Weather History Graph

Search for Another Location

Airport or City:

Trip Planner

Search our weather history database for the weather conditions in past years. The results will help you decide how hot, cold, wet, or windy it might be!

Date:

Astronomy

Nov. 19, 2012 Rise Set
Actual Time 7:01 AM CST 5:26 PM CST
Civil Twilight 6:35 AM CST 5:52 PM CST
Nautical Twilight 6:05 AM CST 6:22 PM CST
Astronomical Twilight 5:36 AM CST 6:51 PM CST
Moon 12:12 PM CST (11/19) 11:45 PM CST (11/19)
Length of Visible Light 11h 17m
Length of Day
10h 25m
Waxing Crescent, 41% of the Moon is Illuminated
Nov 19
Waxing Crescent
Nov 20
First Quarter
Nov 28
Full
Dec 6
Last Quarter
Dec 13
New

Hourly Weather History & Observations

Time (CST) Temp. Dew Point Humidity Pressure Visibility Wind Dir Wind Speed Gust Speed Precip Events Conditions
12:15 AM 60.8 °F 33.8 °F 36% 30.22 in 10.0 mi SSE 12.7 mph - N/A   Clear
12:35 AM 60.8 °F 33.8 °F 36% 30.21 in 10.0 mi SSE 12.7 mph - N/A   Clear
12:55 AM 60.8 °F 35.6 °F 39% 30.21 in 10.0 mi SSE 13.8 mph 17.3 mph N/A   Clear
1:15 AM 59.0 °F 35.6 °F 42% 30.21 in 10.0 mi SSE 12.7 mph - N/A   Clear
1:35 AM 59.0 °F 39.2 °F 48% 30.22 in 10.0 mi SSE 11.5 mph - N/A   Clear
1:55 AM 59.0 °F 41.0 °F 51% 30.22 in 10.0 mi SSE 11.5 mph - N/A   Clear
2:15 AM 59.0 °F 41.0 °F 51% 30.22 in 10.0 mi SSE 11.5 mph - N/A   Clear
2:35 AM 59.0 °F 41.0 °F 51% 30.22 in 10.0 mi SSE 12.7 mph - N/A   Clear
2:55 AM 57.2 °F 42.8 °F 59% 30.22 in 10.0 mi SSE 11.5 mph - N/A   Clear
3:15 AM 57.2 °F 42.8 °F 59% 30.21 in 10.0 mi SSE 13.8 mph - N/A   Clear
3:35 AM 57.2 °F 42.8 °F 59% 30.20 in 10.0 mi SSE 12.7 mph - N/A   Scattered Clouds
3:55 AM 57.2 °F 44.6 °F 63% 30.20 in 10.0 mi SSE 12.7 mph - N/A   Scattered Clouds
4:35 AM 57.2 °F 42.8 °F 59% 30.19 in 10.0 mi SSE 10.4 mph - N/A   Scattered Clouds
4:55 AM 55.4 °F 44.6 °F 67% 30.20 in 10.0 mi SSE 9.2 mph - N/A   Clear
5:15 AM 55.4 °F 44.6 °F 67% 30.20 in 10.0 mi SSE 8.1 mph - N/A   Scattered Clouds
5:35 AM 55.4 °F 44.6 °F 67% 30.21 in 10.0 mi South 8.1 mph - N/A   Overcast
5:55 AM 55.4 °F 44.6 °F 67% 30.20 in 10.0 mi South 10.4 mph - N/A   Scattered Clouds
6:15 AM 55.4 °F 44.6 °F 67% 30.20 in 10.0 mi South 8.1 mph - N/A   Mostly Cloudy
6:35 AM 55.4 °F 42.8 °F 63% 30.22 in 10.0 mi South 9.2 mph - N/A   Mostly Cloudy
6:55 AM 55.4 °F 42.8 °F 63% 30.23 in 10.0 mi South 5.8 mph - N/A   Mostly Cloudy
7:35 AM 55.4 °F 42.8 °F 63% 30.24 in 10.0 mi South 8.1 mph - N/A   Mostly Cloudy
7:55 AM 55.4 °F 42.8 °F 63% 30.24 in 10.0 mi South 8.1 mph - N/A   Mostly Cloudy
8:15 AM 57.2 °F 42.8 °F 59% 30.25 in 10.0 mi South 8.1 mph - N/A   Mostly Cloudy
8:55 AM 59.0 °F 42.8 °F 55% 30.26 in 10.0 mi South 9.2 mph - N/A   Mostly Cloudy
9:15 AM 60.8 °F 42.8 °F 52% 30.25 in 10.0 mi SSE 10.4 mph - N/A   Mostly Cloudy
9:35 AM 60.8 °F 42.8 °F 52% 30.26 in 10.0 mi South 11.5 mph - N/A   Mostly Cloudy
9:55 AM 62.6 °F 44.6 °F 52% 30.26 in 10.0 mi South 10.4 mph - N/A   Mostly Cloudy
10:15 AM 62.6 °F 44.6 °F 52% 30.25 in 10.0 mi South 10.4 mph - N/A   Mostly Cloudy
10:35 AM 62.6 °F 44.6 °F 52% 30.25 in 10.0 mi South 12.7 mph - N/A   Overcast
10:55 AM 64.4 °F 44.6 °F 49% 30.25 in 10.0 mi South 13.8 mph - N/A   Mostly Cloudy
11:15 AM 64.4 °F 44.6 °F 49% 30.24 in 10.0 mi South 12.7 mph - N/A   Mostly Cloudy
11:35 AM 64.4 °F 46.4 °F 52% 30.23 in 10.0 mi South 11.5 mph - N/A   Mostly Cloudy
11:55 AM 62.6 °F 46.4 °F 55% 30.22 in 10.0 mi South 11.5 mph - N/A   Mostly Cloudy
12:15 PM 64.4 °F 46.4 °F 52% 30.21 in 10.0 mi South 12.7 mph - N/A   Overcast
12:35 PM 66.2 °F 48.2 °F 52% 30.20 in 10.0 mi South 11.5 mph - N/A   Mostly Cloudy
12:55 PM 66.2 °F 48.2 °F 52% 30.19 in 10.0 mi South 13.8 mph - N/A   Mostly Cloudy
1:15 PM 68.0 °F 50.0 °F 52% 30.18 in 10.0 mi South 11.5 mph - N/A   Overcast
1:35 PM 68.0 °F 50.0 °F 52% 30.17 in 10.0 mi South 13.8 mph - N/A   Overcast
2:15 PM 71.6 °F 51.8 °F 50% 30.15 in 10.0 mi South 13.8 mph 20.7 mph N/A   Scattered Clouds
2:35 PM 69.8 °F 50.0 °F 49% 30.14 in 10.0 mi South 11.5 mph 17.3 mph N/A   Scattered Clouds
2:55 PM 69.8 °F 51.8 °F 53% 30.14 in 10.0 mi South 10.4 mph 16.1 mph N/A   Scattered Clouds
3:15 PM 69.8 °F 51.8 °F 53% 30.14 in 10.0 mi South 9.2 mph - N/A   Clear
3:35 PM 69.8 °F 51.8 °F 53% 30.14 in 10.0 mi SSE 11.5 mph - N/A   Clear
3:55 PM 69.8 °F 51.8 °F 53% 30.13 in 10.0 mi SSE 10.4 mph - N/A   Clear
4:15 PM 69.8 °F 51.8 °F 53% 30.13 in 10.0 mi South 8.1 mph - N/A   Clear
4:35 PM 69.8 °F 51.8 °F 53% 30.13 in 10.0 mi SSE 8.1 mph - N/A   Clear
4:55 PM 69.8 °F 51.8 °F 53% 30.13 in 10.0 mi SE 6.9 mph - N/A   Clear
5:15 PM 68.0 °F 50.0 °F 52% 30.13 in 10.0 mi SE 4.6 mph - N/A   Clear
5:35 PM 66.2 °F 50.0 °F 56% 30.13 in 10.0 mi SE 6.9 mph - N/A   Clear
5:55 PM 64.4 °F 50.0 °F 59% 30.14 in 10.0 mi SE 5.8 mph - N/A   Clear
6:15 PM 64.4 °F 50.0 °F 59% 30.15 in 10.0 mi SE 6.9 mph - N/A   Clear
6:35 PM 64.4 °F 50.0 °F 59% 30.15 in 10.0 mi SE 6.9 mph - N/A   Clear
6:55 PM 64.4 °F 51.8 °F 64% 30.15 in 10.0 mi SE 6.9 mph - N/A   Clear
7:15 PM 64.4 °F 51.8 °F 64% 30.16 in 10.0 mi SE 8.1 mph - N/A   Clear
7:35 PM 64.4 °F 51.8 °F 64% 30.16 in 10.0 mi SE 6.9 mph - N/A   Clear
7:55 PM 62.6 °F 51.8 °F 68% 30.17 in 10.0 mi SE 5.8 mph - N/A   Scattered Clouds
8:35 PM 62.6 °F 51.8 °F 68% 30.16 in 10.0 mi SE 8.1 mph - N/A   Clear
8:55 PM 62.6 °F 51.8 °F 68% 30.16 in 10.0 mi SE 9.2 mph - N/A   Clear
9:35 PM 62.6 °F 51.8 °F 68% 30.16 in 10.0 mi SSE 10.4 mph - N/A   Clear
9:55 PM 64.4 °F 51.8 °F 64% 30.16 in 10.0 mi SSE 10.4 mph - N/A   Clear
10:15 PM 64.4 °F 51.8 °F 64% 30.15 in 10.0 mi SSE 9.2 mph - N/A   Clear
10:35 PM 62.6 °F 51.8 °F 68% 30.15 in 10.0 mi SSE 10.4 mph - N/A   Clear
10:55 PM 62.6 °F 51.8 °F 68% 30.15 in 10.0 mi SSE 6.9 mph - N/A   Clear
11:15 PM 62.6 °F 51.8 °F 68% 30.16 in 10.0 mi South 9.2 mph - N/A   Clear
11:35 PM 62.6 °F 51.8 °F 68% 30.15 in 10.0 mi South 6.9 mph - N/A   Clear
11:55 PM 60.8 °F 51.8 °F 72% 30.15 in 10.0 mi South 6.9 mph - N/A   Clear